owner,sensor,date,latitude,longitude,vertical_datum,sea_water_temperature,qcFlag
Anadarko,ioos:station:wmo:42370:2,2022-04-01T00:06:00Z,27.3215,-90.5355,18.3,23.4,11111222
Anadarko,ioos:station:wmo:42370:2,2022-04-01T00:26:00Z,27.3215,-90.5355,18.3,23.3,11111222
Anadarko,ioos:station:wmo:42370:2,2022-04-01T00:46:00Z,27.3215,-90.5355,18.3,23.4,11111222
Anadarko,ioos:station:wmo:42370:2,2022-04-01T01:06:00Z,27.3215,-90.5355,18.3,23.4,11111222
Anadarko,ioos:station:wmo:42370:2,2022-04-01T01:26:00Z,27.3215,-90.5355,18.3,23.5,11111222
Anadarko,ioos:station:wmo:42370:2,2022-04-01T01:46:00Z,27.3215,-90.5355,18.3,23.5,11111222
Anadarko,ioos:station:wmo:42370:2,2022-04-01T02:06:00Z,27.3215,-90.5355,18.3,23.5,11111222
Anadarko,ioos:station:wmo:42370:2,2022-04-01T02:26:00Z,27.3215,-90.5355,18.3,23.4,11111222
Anadarko,ioos:station:wmo:42370:2,2022-04-01T02:46:00Z,27.3215,-90.5355,18.3,23.5,11111222
Anadarko,ioos:station:wmo:42370:2,2022-04-01T03:06:00Z,27.3215,-90.5355,18.3,23.5,11111222
Anadarko,ioos:station:wmo:42370:2,2022-04-01T03:26:00Z,27.3215,-90.5355,18.3,23.5,11111222
Anadarko,ioos:station:wmo:42370:2,2022-04-01T03:46:00Z,27.3215,-90.5355,18.3,23.5,11111222
Anadarko,ioos:station:wmo:42370:2,2022-04-01T04:06:00Z,27.3215,-90.5355,18.3,23.6,11111222
Anadarko,ioos:station:wmo:42370:2,2022-04-01T04:26:00Z,27.3215,-90.5355,18.3,23.6,11111222
Anadarko,ioos:station:wmo:42370:2,2022-04-01T04:46:00Z,27.3215,-90.5355,18.3,23.7,11111222
Anadarko,ioos:station:wmo:42370:2,2022-04-01T05:06:00Z,27.3215,-90.5355,18.3,23.7,11111222
Anadarko,ioos:station:wmo:42370:2,2022-04-01T05:26:00Z,27.3215,-90.5355,18.3,23.5,11111222
Anadarko,ioos:station:wmo:42370:2,2022-04-01T05:46:00Z,27.3215,-90.5355,18.3,23.7,11111222
Anadarko,ioos:station:wmo:42370:2,2022-04-01T06:06:00Z,27.3215,-90.5355,18.3,23.6,11111222
Anadarko,ioos:station:wmo:42370:2,2022-04-01T06:26:00Z,27.3215,-90.5355,18.3,23.6,11111222
Anadarko,ioos:station:wmo:42370:2,2022-04-01T06:46:00Z,27.3215,-90.5355,18.3,23.7,11111222
Anadarko,ioos:station:wmo:42370:2,2022-04-01T07:06:00Z,27.3215,-90.5355,18.3,23.6,11111222
Anadarko,ioos:station:wmo:42370:2,2022-04-01T07:26:00Z,27.3215,-90.5355,18.3,23.6,11111222
Anadarko,ioos:station:wmo:42370:2,2022-04-01T07:46:00Z,27.3215,-90.5355,18.3,23.6,11111222
Anadarko,ioos:station:wmo:42370:2,2022-04-01T08:06:00Z,27.3215,-90.5355,18.3,23.6,11111222
Anadarko,ioos:station:wmo:42370:2,2022-04-01T08:26:00Z,27.3215,-90.5355,18.3,23.6,11111222
Anadarko,ioos:station:wmo:42370:2,2022-04-01T08:46:00Z,27.3215,-90.5355,18.3,23.6,11111222
Anadarko,ioos:station:wmo:42370:2,2022-04-01T09:06:00Z,27.3215,-90.5355,18.3,23.6,11111222
Anadarko,ioos:station:wmo:42370:2,2022-04-01T09:26:00Z,27.3215,-90.5355,18.3,23.5,11111222
Anadarko,ioos:station:wmo:42370:2,2022-04-01T09:46:00Z,27.3215,-90.5355,18.3,23.5,11111222
Anadarko,ioos:station:wmo:42370:2,2022-04-01T10:06:00Z,27.3215,-90.5355,18.3,23.6,11111222
Anadarko,ioos:station:wmo:42370:2,2022-04-01T10:26:00Z,27.3215,-90.5355,18.3,23.6,11111222
Anadarko,ioos:station:wmo:42370:2,2022-04-01T10:46:00Z,27.3215,-90.5355,18.3,23.5,11111222
Anadarko,ioos:station:wmo:42370:2,2022-04-01T11:06:00Z,27.3215,-90.5355,18.3,23.6,11111222
Anadarko,ioos:station:wmo:42370:2,2022-04-01T11:26:00Z,27.3215,-90.5355,18.3,23.6,11111222
Anadarko,ioos:station:wmo:42370:2,2022-04-01T11:46:00Z,27.3215,-90.5355,18.3,23.5,11111222
Anadarko,ioos:station:wmo:42370:2,2022-04-01T12:06:00Z,27.3215,-90.5355,18.3,23.5,11111222
Anadarko,ioos:station:wmo:42370:2,2022-04-01T12:26:00Z,27.3215,-90.5355,18.3,23.6,11111222
Anadarko,ioos:station:wmo:42370:2,2022-04-01T12:46:00Z,27.3215,-90.5355,18.3,23.6,11111222
Anadarko,ioos:station:wmo:42370:2,2022-04-01T13:06:00Z,27.3215,-90.5355,18.3,23.6,11111222
Anadarko,ioos:station:wmo:42370:2,2022-04-01T13:26:00Z,27.3215,-90.5355,18.3,23.5,11111222
Anadarko,ioos:station:wmo:42370:2,2022-04-01T13:46:00Z,27.3215,-90.5355,18.3,23.6,11111222
Anadarko,ioos:station:wmo:42370:2,2022-04-01T14:06:00Z,27.3215,-90.5355,18.3,23.4,11111222
Anadarko,ioos:station:wmo:42370:2,2022-04-01T14:26:00Z,27.3215,-90.5355,18.3,23.5,11111222
Anadarko,ioos:station:wmo:42370:2,2022-04-01T14:46:00Z,27.3215,-90.5355,18.3,23.4,11111222
Anadarko,ioos:station:wmo:42370:2,2022-04-01T15:06:00Z,27.3215,-90.5355,18.3,23.4,11111222
Anadarko,ioos:station:wmo:42370:2,2022-04-01T15:26:00Z,27.3215,-90.5355,18.3,23.5,11111222
Anadarko,ioos:station:wmo:42370:2,2022-04-01T15:46:00Z,27.3215,-90.5355,18.3,23.5,11111222
Anadarko,ioos:station:wmo:42370:2,2022-04-01T16:06:00Z,27.3215,-90.5355,18.3,23.5,11111222
Anadarko,ioos:station:wmo:42370:2,2022-04-01T16:26:00Z,27.3215,-90.5355,18.3,23.5,11111222
Anadarko,ioos:station:wmo:42370:2,2022-04-01T16:46:00Z,27.3215,-90.5355,18.3,23.5,11111222
Anadarko,ioos:station:wmo:42370:2,2022-04-01T17:06:00Z,27.3215,-90.5355,18.3,23.5,11111222
Anadarko,ioos:station:wmo:42370:2,2022-04-01T17:26:00Z,27.3215,-90.5355,18.3,23.3,11111222
Anadarko,ioos:station:wmo:42370:2,2022-04-01T17:46:00Z,27.3215,-90.5355,18.3,23.4,11111222
Anadarko,ioos:station:wmo:42370:2,2022-04-01T18:06:00Z,27.3215,-90.5355,18.3,23.4,11111222
Anadarko,ioos:station:wmo:42370:2,2022-04-01T18:26:00Z,27.3215,-90.5355,18.3,23.3,11111222
Anadarko,ioos:station:wmo:42370:2,2022-04-01T18:46:00Z,27.3215,-90.5355,18.3,23.3,11111222
Anadarko,ioos:station:wmo:42370:2,2022-04-01T19:06:00Z,27.3215,-90.5355,18.3,23.3,11111222
Anadarko,ioos:station:wmo:42370:2,2022-04-01T19:26:00Z,27.3215,-90.5355,18.3,23.2,11111222
Anadarko,ioos:station:wmo:42370:2,2022-04-01T19:46:00Z,27.3215,-90.5355,18.3,23.2,11111222
Anadarko,ioos:station:wmo:42370:2,2022-04-01T20:06:00Z,27.3215,-90.5355,18.3,23.2,11111222
Anadarko,ioos:station:wmo:42370:2,2022-04-01T20:26:00Z,27.3215,-90.5355,18.3,23.3,11111222
Anadarko,ioos:station:wmo:42370:2,2022-04-01T20:46:00Z,27.3215,-90.5355,18.3,23.1,11111222
Anadarko,ioos:station:wmo:42370:2,2022-04-01T21:06:00Z,27.3215,-90.5355,18.3,23.1,11111222
Anadarko,ioos:station:wmo:42370:2,2022-04-01T21:26:00Z,27.3215,-90.5355,18.3,23.1,11111222
Anadarko,ioos:station:wmo:42370:2,2022-04-01T21:46:00Z,27.3215,-90.5355,18.3,23.0,11111222
Anadarko,ioos:station:wmo:42370:2,2022-04-01T22:06:00Z,27.3215,-90.5355,18.3,22.9,11111222
Anadarko,ioos:station:wmo:42370:2,2022-04-01T22:26:00Z,27.3215,-90.5355,18.3,22.8,11111222
Anadarko,ioos:station:wmo:42370:2,2022-04-01T22:46:00Z,27.3215,-90.5355,18.3,22.8,11111222
Anadarko,ioos:station:wmo:42370:2,2022-04-01T23:06:00Z,27.3215,-90.5355,18.3,22.7,11111222
Anadarko,ioos:station:wmo:42370:2,2022-04-01T23:26:00Z,27.3215,-90.5355,18.3,22.7,11111222
Anadarko,ioos:station:wmo:42370:2,2022-04-01T23:46:00Z,27.3215,-90.5355,18.3,22.6,11111222
Anadarko,ioos:station:wmo:42370:2,2022-04-02T00:06:00Z,27.3215,-90.5355,18.3,22.3,11111222
Anadarko,ioos:station:wmo:42370:2,2022-04-02T00:26:00Z,27.3215,-90.5355,18.3,22.6,11111222
Anadarko,ioos:station:wmo:42370:2,2022-04-02T00:46:00Z,27.3215,-90.5355,18.3,22.7,11111222
Anadarko,ioos:station:wmo:42370:2,2022-04-02T01:06:00Z,27.3215,-90.5355,18.3,22.6,11111222
Anadarko,ioos:station:wmo:42370:2,2022-04-02T01:26:00Z,27.3215,-90.5355,18.3,22.3,11111222
Anadarko,ioos:station:wmo:42370:2,2022-04-02T01:46:00Z,27.3215,-90.5355,18.3,22.1,11111222
Anadarko,ioos:station:wmo:42370:2,2022-04-02T02:06:00Z,27.3215,-90.5355,18.3,22.3,11111222
Anadarko,ioos:station:wmo:42370:2,2022-04-02T02:26:00Z,27.3215,-90.5355,18.3,22.2,11111222
Anadarko,ioos:station:wmo:42370:2,2022-04-02T02:46:00Z,27.3215,-90.5355,18.3,22.3,11111222
Anadarko,ioos:station:wmo:42370:2,2022-04-02T03:06:00Z,27.3215,-90.5355,18.3,22.1,11111222
Anadarko,ioos:station:wmo:42370:2,2022-04-02T03:26:00Z,27.3215,-90.5355,18.3,22.1,11111222
Anadarko,ioos:station:wmo:42370:2,2022-04-02T03:46:00Z,27.3215,-90.5355,18.3,22.2,11111222
Anadarko,ioos:station:wmo:42370:2,2022-04-02T04:06:00Z,27.3215,-90.5355,18.3,22.1,11111222
Anadarko,ioos:station:wmo:42370:2,2022-04-02T04:26:00Z,27.3215,-90.5355,18.3,22.1,11111222
Anadarko,ioos:station:wmo:42370:2,2022-04-02T04:46:00Z,27.3215,-90.5355,18.3,22.1,11111222
Anadarko,ioos:station:wmo:42370:2,2022-04-02T05:06:00Z,27.3215,-90.5355,18.3,22.2,11111222
Anadarko,ioos:station:wmo:42370:2,2022-04-02T05:26:00Z,27.3215,-90.5355,18.3,22.1,11111222
Anadarko,ioos:station:wmo:42370:2,2022-04-02T05:46:00Z,27.3215,-90.5355,18.3,22.1,11111222
Anadarko,ioos:station:wmo:42370:2,2022-04-02T06:06:00Z,27.3215,-90.5355,18.3,22.1,11111222
Anadarko,ioos:station:wmo:42370:2,2022-04-02T06:26:00Z,27.3215,-90.5355,18.3,22.1,11111222
Anadarko,ioos:station:wmo:42370:2,2022-04-02T06:46:00Z,27.3215,-90.5355,18.3,22.1,11111222
Anadarko,ioos:station:wmo:42370:2,2022-04-02T07:06:00Z,27.3215,-90.5355,18.3,22.0,11111222
Anadarko,ioos:station:wmo:42370:2,2022-04-02T07:26:00Z,27.3215,-90.5355,18.3,22.1,11111222
Anadarko,ioos:station:wmo:42370:2,2022-04-02T07:46:00Z,27.3215,-90.5355,18.3,22.2,11111222
Anadarko,ioos:station:wmo:42370:2,2022-04-02T08:06:00Z,27.3215,-90.5355,18.3,22.1,11111222
Anadarko,ioos:station:wmo:42370:2,2022-04-02T08:26:00Z,27.3215,-90.5355,18.3,22.1,11111222
Anadarko,ioos:station:wmo:42370:2,2022-04-02T08:46:00Z,27.3215,-90.5355,18.3,22.2,11111222
Anadarko,ioos:station:wmo:42370:2,2022-04-02T09:06:00Z,27.3215,-90.5355,18.3,22.1,11111222
Anadarko,ioos:station:wmo:42370:2,2022-04-02T09:26:00Z,27.3215,-90.5355,18.3,22.1,11111222
Anadarko,ioos:station:wmo:42370:2,2022-04-02T09:46:00Z,27.3215,-90.5355,18.3,22.1,11111222
Anadarko,ioos:station:wmo:42370:2,2022-04-02T10:06:00Z,27.3215,-90.5355,18.3,22.1,11111222
Anadarko,ioos:station:wmo:42370:2,2022-04-02T10:26:00Z,27.3215,-90.5355,18.3,22.1,11111222
Anadarko,ioos:station:wmo:42370:2,2022-04-02T10:46:00Z,27.3215,-90.5355,18.3,22.1,11111222
Anadarko,ioos:station:wmo:42370:2,2022-04-02T11:06:00Z,27.3215,-90.5355,18.3,22.1,11111222
Anadarko,ioos:station:wmo:42370:2,2022-04-02T11:26:00Z,27.3215,-90.5355,18.3,22.0,11111222
Anadarko,ioos:station:wmo:42370:2,2022-04-02T11:46:00Z,27.3215,-90.5355,18.3,22.1,11111222
Anadarko,ioos:station:wmo:42370:2,2022-04-02T12:06:00Z,27.3215,-90.5355,18.3,22.1,11111222
Anadarko,ioos:station:wmo:42370:2,2022-04-02T12:26:00Z,27.3215,-90.5355,18.3,22.3,11111222
Anadarko,ioos:station:wmo:42370:2,2022-04-02T12:45:00Z,27.3215,-90.5355,18.3,22.6,11111222
Anadarko,ioos:station:wmo:42370:2,2022-04-02T13:06:00Z,27.3215,-90.5355,18.3,22.7,11111222
Anadarko,ioos:station:wmo:42370:2,2022-04-02T13:26:00Z,27.3215,-90.5355,18.3,22.8,11111222
Anadarko,ioos:station:wmo:42370:2,2022-04-02T13:45:00Z,27.3215,-90.5355,18.3,22.8,11111222
Anadarko,ioos:station:wmo:42370:2,2022-04-02T14:06:00Z,27.3215,-90.5355,18.3,22.9,11111222
Anadarko,ioos:station:wmo:42370:2,2022-04-02T14:26:00Z,27.3215,-90.5355,18.3,22.9,11111222
Anadarko,ioos:station:wmo:42370:2,2022-04-02T14:45:00Z,27.3215,-90.5355,18.3,23.1,11111222
Anadarko,ioos:station:wmo:42370:2,2022-04-02T15:06:00Z,27.3215,-90.5355,18.3,23.0,11111222
Anadarko,ioos:station:wmo:42370:2,2022-04-02T15:26:00Z,27.3215,-90.5355,18.3,23.0,11111222
Anadarko,ioos:station:wmo:42370:2,2022-04-02T15:45:00Z,27.3215,-90.5355,18.3,23.1,11111222
Anadarko,ioos:station:wmo:42370:2,2022-04-02T16:05:00Z,27.3215,-90.5355,18.3,23.2,11111222
Anadarko,ioos:station:wmo:42370:2,2022-04-02T16:25:00Z,27.3215,-90.5355,18.3,23.2,11111222
Anadarko,ioos:station:wmo:42370:2,2022-04-02T16:45:00Z,27.3215,-90.5355,18.3,23.3,11111222
Anadarko,ioos:station:wmo:42370:2,2022-04-02T17:05:00Z,27.3215,-90.5355,18.3,23.3,11111222
Anadarko,ioos:station:wmo:42370:2,2022-04-02T17:25:00Z,27.3215,-90.5355,18.3,23.3,11111222
Anadarko,ioos:station:wmo:42370:2,2022-04-02T17:45:00Z,27.3215,-90.5355,18.3,23.6,11111222
Anadarko,ioos:station:wmo:42370:2,2022-04-02T18:05:00Z,27.3215,-90.5355,18.3,23.3,11111222
Anadarko,ioos:station:wmo:42370:2,2022-04-02T18:25:00Z,27.3215,-90.5355,18.3,23.2,11111222
Anadarko,ioos:station:wmo:42370:2,2022-04-02T18:45:00Z,27.3215,-90.5355,18.3,23.3,11111222
Anadarko,ioos:station:wmo:42370:2,2022-04-02T19:05:00Z,27.3215,-90.5355,18.3,23.4,11111222
Anadarko,ioos:station:wmo:42370:2,2022-04-02T19:25:00Z,27.3215,-90.5355,18.3,23.4,11111222
Anadarko,ioos:station:wmo:42370:2,2022-04-02T19:45:00Z,27.3215,-90.5355,18.3,23.3,11111222
Anadarko,ioos:station:wmo:42370:2,2022-04-02T20:05:00Z,27.3215,-90.5355,18.3,23.4,11111222
Anadarko,ioos:station:wmo:42370:2,2022-04-02T20:25:00Z,27.3215,-90.5355,18.3,23.4,11111222
Anadarko,ioos:station:wmo:42370:2,2022-04-02T20:45:00Z,27.3215,-90.5355,18.3,23.4,11111222
Anadarko,ioos:station:wmo:42370:2,2022-04-02T21:05:00Z,27.3215,-90.5355,18.3,23.5,11111222
Anadarko,ioos:station:wmo:42370:2,2022-04-02T21:25:00Z,27.3215,-90.5355,18.3,23.5,11111222
Anadarko,ioos:station:wmo:42370:2,2022-04-02T21:45:00Z,27.3215,-90.5355,18.3,23.6,11111222
Anadarko,ioos:station:wmo:42370:2,2022-04-02T22:05:00Z,27.3215,-90.5355,18.3,23.5,11111222
Anadarko,ioos:station:wmo:42370:2,2022-04-02T22:25:00Z,27.3215,-90.5355,18.3,23.4,11111222
Anadarko,ioos:station:wmo:42370:2,2022-04-02T22:45:00Z,27.3215,-90.5355,18.3,23.4,11111222
Anadarko,ioos:station:wmo:42370:2,2022-04-02T23:05:00Z,27.3215,-90.5355,18.3,23.5,11111222
Anadarko,ioos:station:wmo:42370:2,2022-04-02T23:25:00Z,27.3215,-90.5355,18.3,23.5,11111222
Anadarko,ioos:station:wmo:42370:2,2022-04-02T23:45:00Z,27.3215,-90.5355,18.3,23.4,11111222
Anadarko,ioos:station:wmo:42370:2,2022-04-03T00:05:00Z,27.3215,-90.5355,18.3,23.4,11111222
Anadarko,ioos:station:wmo:42370:2,2022-04-03T00:25:00Z,27.3215,-90.5355,18.3,23.6,11111222
Anadarko,ioos:station:wmo:42370:2,2022-04-03T00:45:00Z,27.3215,-90.5355,18.3,23.4,11111222
Anadarko,ioos:station:wmo:42370:2,2022-04-03T01:05:00Z,27.3215,-90.5355,18.3,23.4,11111222
Anadarko,ioos:station:wmo:42370:2,2022-04-03T01:25:00Z,27.3215,-90.5355,18.3,23.4,11111222
Anadarko,ioos:station:wmo:42370:2,2022-04-03T01:45:00Z,27.3215,-90.5355,18.3,23.4,11111222
Anadarko,ioos:station:wmo:42370:2,2022-04-03T02:05:00Z,27.3215,-90.5355,18.3,23.3,11111222
Anadarko,ioos:station:wmo:42370:2,2022-04-03T02:25:00Z,27.3215,-90.5355,18.3,23.3,11111222
Anadarko,ioos:station:wmo:42370:2,2022-04-03T02:45:00Z,27.3215,-90.5355,18.3,23.3,11111222
Anadarko,ioos:station:wmo:42370:2,2022-04-03T03:05:00Z,27.3215,-90.5355,18.3,23.3,11111222
Anadarko,ioos:station:wmo:42370:2,2022-04-03T03:25:00Z,27.3215,-90.5355,18.3,23.2,11111222
Anadarko,ioos:station:wmo:42370:2,2022-04-03T03:45:00Z,27.3215,-90.5355,18.3,23.1,11111222
Anadarko,ioos:station:wmo:42370:2,2022-04-03T04:05:00Z,27.3215,-90.5355,18.3,23.3,11111222
Anadarko,ioos:station:wmo:42370:2,2022-04-03T04:25:00Z,27.3215,-90.5355,18.3,23.1,11111222
Anadarko,ioos:station:wmo:42370:2,2022-04-03T04:45:00Z,27.3215,-90.5355,18.3,23.1,11111222
Anadarko,ioos:station:wmo:42370:2,2022-04-03T05:05:00Z,27.3215,-90.5355,18.3,23.1,11111222
Anadarko,ioos:station:wmo:42370:2,2022-04-03T05:25:00Z,27.3215,-90.5355,18.3,22.9,11111222
Anadarko,ioos:station:wmo:42370:2,2022-04-03T05:45:00Z,27.3215,-90.5355,18.3,22.7,11111222
Anadarko,ioos:station:wmo:42370:2,2022-04-03T06:05:00Z,27.3215,-90.5355,18.3,22.6,11111222
Anadarko,ioos:station:wmo:42370:2,2022-04-03T06:25:00Z,27.3215,-90.5355,18.3,22.6,11111222
Anadarko,ioos:station:wmo:42370:2,2022-04-03T06:45:00Z,27.3215,-90.5355,18.3,22.6,11111222
Anadarko,ioos:station:wmo:42370:2,2022-04-03T07:05:00Z,27.3215,-90.5355,18.3,22.6,11111222
Anadarko,ioos:station:wmo:42370:2,2022-04-03T07:25:00Z,27.3215,-90.5355,18.3,22.5,11111222
Anadarko,ioos:station:wmo:42370:2,2022-04-03T07:45:00Z,27.3215,-90.5355,18.3,22.5,11111222
Anadarko,ioos:station:wmo:42370:2,2022-04-03T08:05:00Z,27.3215,-90.5355,18.3,22.6,11111222
Anadarko,ioos:station:wmo:42370:2,2022-04-03T08:25:00Z,27.3215,-90.5355,18.3,22.2,11111222
Anadarko,ioos:station:wmo:42370:2,2022-04-03T08:45:00Z,27.3215,-90.5355,18.3,22.2,11111222
Anadarko,ioos:station:wmo:42370:2,2022-04-03T09:05:00Z,27.3215,-90.5355,18.3,22.0,11111222
Anadarko,ioos:station:wmo:42370:2,2022-04-03T09:25:00Z,27.3215,-90.5355,18.3,21.9,11111222
Anadarko,ioos:station:wmo:42370:2,2022-04-03T09:45:00Z,27.3215,-90.5355,18.3,22.1,11111222
Anadarko,ioos:station:wmo:42370:2,2022-04-03T10:05:00Z,27.3215,-90.5355,18.3,22.0,11111222
Anadarko,ioos:station:wmo:42370:2,2022-04-03T10:25:00Z,27.3215,-90.5355,18.3,22.0,11111222
Anadarko,ioos:station:wmo:42370:2,2022-04-03T10:45:00Z,27.3215,-90.5355,18.3,21.9,11111222
Anadarko,ioos:station:wmo:42370:2,2022-04-03T11:05:00Z,27.3215,-90.5355,18.3,22.0,11111222
Anadarko,ioos:station:wmo:42370:2,2022-04-03T11:25:00Z,27.3215,-90.5355,18.3,21.9,11111222
Anadarko,ioos:station:wmo:42370:2,2022-04-03T11:45:00Z,27.3215,-90.5355,18.3,21.9,11111222
Anadarko,ioos:station:wmo:42370:2,2022-04-03T12:05:00Z,27.3215,-90.5355,18.3,21.9,11111222
Anadarko,ioos:station:wmo:42370:2,2022-04-03T12:25:00Z,27.3215,-90.5355,18.3,21.9,11111222
Anadarko,ioos:station:wmo:42370:2,2022-04-03T12:45:00Z,27.3215,-90.5355,18.3,21.8,11111222
Anadarko,ioos:station:wmo:42370:2,2022-04-03T13:05:00Z,27.3215,-90.5355,18.3,22.3,11111222
Anadarko,ioos:station:wmo:42370:2,2022-04-03T13:25:00Z,27.3215,-90.5355,18.3,22.0,11111222
Anadarko,ioos:station:wmo:42370:2,2022-04-03T13:45:00Z,27.3215,-90.5355,18.3,21.8,11111222
Anadarko,ioos:station:wmo:42370:2,2022-04-03T14:05:00Z,27.3215,-90.5355,18.3,21.9,11111222
Anadarko,ioos:station:wmo:42370:2,2022-04-03T14:25:00Z,27.3215,-90.5355,18.3,22.0,11111222
Anadarko,ioos:station:wmo:42370:2,2022-04-03T14:45:00Z,27.3215,-90.5355,18.3,22.3,11111222
Anadarko,ioos:station:wmo:42370:2,2022-04-03T15:05:00Z,27.3215,-90.5355,18.3,22.4,11111222
Anadarko,ioos:station:wmo:42370:2,2022-04-03T15:25:00Z,27.3215,-90.5355,18.3,22.4,11111222
Anadarko,ioos:station:wmo:42370:2,2022-04-03T15:45:00Z,27.3215,-90.5355,18.3,22.5,11111222
Anadarko,ioos:station:wmo:42370:2,2022-04-03T16:05:00Z,27.3215,-90.5355,18.3,22.5,11111222
Anadarko,ioos:station:wmo:42370:2,2022-04-03T16:25:00Z,27.3215,-90.5355,18.3,22.4,11111222
Anadarko,ioos:station:wmo:42370:2,2022-04-03T16:45:00Z,27.3215,-90.5355,18.3,22.5,11111222
Anadarko,ioos:station:wmo:42370:2,2022-04-03T17:05:00Z,27.3215,-90.5355,18.3,22.5,11111222
Anadarko,ioos:station:wmo:42370:2,2022-04-03T17:25:00Z,27.3215,-90.5355,18.3,22.5,11111222
Anadarko,ioos:station:wmo:42370:2,2022-04-03T17:45:00Z,27.3215,-90.5355,18.3,22.5,11111222
Anadarko,ioos:station:wmo:42370:2,2022-04-03T18:05:00Z,27.3215,-90.5355,18.3,22.6,11111222
Anadarko,ioos:station:wmo:42370:2,2022-04-03T18:25:00Z,27.3215,-90.5355,18.3,22.6,11111222
Anadarko,ioos:station:wmo:42370:2,2022-04-03T18:45:00Z,27.3215,-90.5355,18.3,22.7,11111222
Anadarko,ioos:station:wmo:42370:2,2022-04-03T19:05:00Z,27.3215,-90.5355,18.3,22.6,11111222
Anadarko,ioos:station:wmo:42370:2,2022-04-03T19:25:00Z,27.3215,-90.5355,18.3,22.7,11111222
Anadarko,ioos:station:wmo:42370:2,2022-04-03T19:45:00Z,27.3215,-90.5355,18.3,22.7,11111222
Anadarko,ioos:station:wmo:42370:2,2022-04-03T20:05:00Z,27.3215,-90.5355,18.3,22.8,11111222
Anadarko,ioos:station:wmo:42370:2,2022-04-03T20:25:00Z,27.3215,-90.5355,18.3,22.9,11111222
Anadarko,ioos:station:wmo:42370:2,2022-04-03T20:45:00Z,27.3215,-90.5355,18.3,22.9,11111222
Anadarko,ioos:station:wmo:42370:2,2022-04-03T21:05:00Z,27.3215,-90.5355,18.3,22.9,11111222
Anadarko,ioos:station:wmo:42370:2,2022-04-03T21:25:00Z,27.3215,-90.5355,18.3,22.8,11111222
Anadarko,ioos:station:wmo:42370:2,2022-04-03T21:45:00Z,27.3215,-90.5355,18.3,22.9,11111222
Anadarko,ioos:station:wmo:42370:2,2022-04-03T22:05:00Z,27.3215,-90.5355,18.3,22.9,11111222
Anadarko,ioos:station:wmo:42370:2,2022-04-03T22:25:00Z,27.3215,-90.5355,18.3,22.9,11111222
Anadarko,ioos:station:wmo:42370:2,2022-04-03T22:45:00Z,27.3215,-90.5355,18.3,22.9,11111222
Anadarko,ioos:station:wmo:42370:2,2022-04-03T23:05:00Z,27.3215,-90.5355,18.3,22.8,11111222
Anadarko,ioos:station:wmo:42370:2,2022-04-03T23:25:00Z,27.3215,-90.5355,18.3,22.9,11111222
Anadarko,ioos:station:wmo:42370:2,2022-04-03T23:45:00Z,27.3215,-90.5355,18.3,22.9,11111222
Anadarko,ioos:station:wmo:42370:2,2022-04-04T00:05:00Z,27.3215,-90.5355,18.3,22.9,11111222
Anadarko,ioos:station:wmo:42370:2,2022-04-04T00:25:00Z,27.3215,-90.5355,18.3,23.3,11111222
Anadarko,ioos:station:wmo:42370:2,2022-04-04T00:45:00Z,27.3215,-90.5355,18.3,22.9,11111222
Anadarko,ioos:station:wmo:42370:2,2022-04-04T01:05:00Z,27.3215,-90.5355,18.3,22.8,11111222
Anadarko,ioos:station:wmo:42370:2,2022-04-04T01:25:00Z,27.3215,-90.5355,18.3,22.9,11111222
Anadarko,ioos:station:wmo:42370:2,2022-04-04T01:45:00Z,27.3215,-90.5355,18.3,22.8,11111222
Anadarko,ioos:station:wmo:42370:2,2022-04-04T02:05:00Z,27.3215,-90.5355,18.3,22.9,11111222
Anadarko,ioos:station:wmo:42370:2,2022-04-04T02:25:00Z,27.3215,-90.5355,18.3,22.9,11111222
Anadarko,ioos:station:wmo:42370:2,2022-04-04T02:45:00Z,27.3215,-90.5355,18.3,22.9,11111222
Anadarko,ioos:station:wmo:42370:2,2022-04-04T03:05:00Z,27.3215,-90.5355,18.3,22.9,11111222
Anadarko,ioos:station:wmo:42370:2,2022-04-04T03:25:00Z,27.3215,-90.5355,18.3,22.9,11111222
Anadarko,ioos:station:wmo:42370:2,2022-04-04T03:45:00Z,27.3215,-90.5355,18.3,22.9,11111222
Anadarko,ioos:station:wmo:42370:2,2022-04-04T04:05:00Z,27.3215,-90.5355,18.3,22.8,11111222
Anadarko,ioos:station:wmo:42370:2,2022-04-04T04:25:00Z,27.3215,-90.5355,18.3,22.8,11111222
Anadarko,ioos:station:wmo:42370:2,2022-04-04T04:45:00Z,27.3215,-90.5355,18.3,22.8,11111222
Anadarko,ioos:station:wmo:42370:2,2022-04-04T05:05:00Z,27.3215,-90.5355,18.3,22.7,11111222
Anadarko,ioos:station:wmo:42370:2,2022-04-04T05:25:00Z,27.3215,-90.5355,18.3,22.8,11111222
Anadarko,ioos:station:wmo:42370:2,2022-04-04T05:45:00Z,27.3215,-90.5355,18.3,22.8,11111222
Anadarko,ioos:station:wmo:42370:2,2022-04-04T06:05:00Z,27.3215,-90.5355,18.3,22.9,11111222
Anadarko,ioos:station:wmo:42370:2,2022-04-04T06:25:00Z,27.3215,-90.5355,18.3,22.8,11111222
Anadarko,ioos:station:wmo:42370:2,2022-04-04T06:45:00Z,27.3215,-90.5355,18.3,22.7,11111222
Anadarko,ioos:station:wmo:42370:2,2022-04-04T07:05:00Z,27.3215,-90.5355,18.3,22.8,11111222
Anadarko,ioos:station:wmo:42370:2,2022-04-04T07:25:00Z,27.3215,-90.5355,18.3,22.7,11111222
Anadarko,ioos:station:wmo:42370:2,2022-04-04T07:45:00Z,27.3215,-90.5355,18.3,22.8,11111222
Anadarko,ioos:station:wmo:42370:2,2022-04-04T08:05:00Z,27.3215,-90.5355,18.3,22.8,11111222
Anadarko,ioos:station:wmo:42370:2,2022-04-04T08:25:00Z,27.3215,-90.5355,18.3,22.9,11111222
Anadarko,ioos:station:wmo:42370:2,2022-04-04T08:45:00Z,27.3215,-90.5355,18.3,22.7,11111222
Anadarko,ioos:station:wmo:42370:2,2022-04-04T09:05:00Z,27.3215,-90.5355,18.3,22.8,11111222
Anadarko,ioos:station:wmo:42370:2,2022-04-04T09:25:00Z,27.3215,-90.5355,18.3,22.8,11111222
Anadarko,ioos:station:wmo:42370:2,2022-04-04T09:45:00Z,27.3215,-90.5355,18.3,22.7,11111222
Anadarko,ioos:station:wmo:42370:2,2022-04-04T10:05:00Z,27.3215,-90.5355,18.3,22.7,11111222
Anadarko,ioos:station:wmo:42370:2,2022-04-04T10:25:00Z,27.3215,-90.5355,18.3,22.8,11111222
Anadarko,ioos:station:wmo:42370:2,2022-04-04T10:45:00Z,27.3215,-90.5355,18.3,22.8,11111222
Anadarko,ioos:station:wmo:42370:2,2022-04-04T11:05:00Z,27.3215,-90.5355,18.3,22.7,11111222
Anadarko,ioos:station:wmo:42370:2,2022-04-04T11:25:00Z,27.3215,-90.5355,18.3,22.7,11111222
Anadarko,ioos:station:wmo:42370:2,2022-04-04T11:45:00Z,27.3215,-90.5355,18.3,22.7,11111222
Anadarko,ioos:station:wmo:42370:2,2022-04-04T12:05:00Z,27.3215,-90.5355,18.3,22.8,11111222
Anadarko,ioos:station:wmo:42370:2,2022-04-04T12:25:00Z,27.3215,-90.5355,18.3,22.7,11111222
Anadarko,ioos:station:wmo:42370:2,2022-04-04T12:45:00Z,27.3215,-90.5355,18.3,22.8,11111222
Anadarko,ioos:station:wmo:42370:2,2022-04-04T13:05:00Z,27.3215,-90.5355,18.3,22.7,11111222
Anadarko,ioos:station:wmo:42370:2,2022-04-04T13:25:00Z,27.3215,-90.5355,18.3,22.8,11111222
Anadarko,ioos:station:wmo:42370:2,2022-04-04T13:45:00Z,27.3215,-90.5355,18.3,22.9,11111222
Anadarko,ioos:station:wmo:42370:2,2022-04-04T14:05:00Z,27.3215,-90.5355,18.3,22.8,11111222